Theta_e
285 287 288 289 289 290 289 291 289 292 292 297 292 293 294 295 295 296 297 297 299 300 302 304 304 303 304 304 303 303 303 303 303 302 301 299 296 295 294 293 293 293 292 291
283 286 287 286 290 292 292 292 292 293 292 294 294 293 294 295 294 294 296 297 298 300 301 301 301 302 302 302 300 300 300 301 301 299 297 295 294 292 291 291 291 290 290 289
283 284 286 283 286 289 292 294 294 289 295 297 293 294 293 295 296 296 296 297 298 299 300 300 301 301 300 300 298 297 298 297 296 294 292 292 291 290 289 289 289 288 288 288
281 283 279 285 287 290 290 292 295 296 298 299 300 299 299 297 297 296 297 298 298 299 299 300 301 300 300 298 295 294 294 294 292 292 291 289 288 288 288 288 288 288 288 288
282 282 285 286 286 286 287 287 291 292 294 295 297 297 296 300 297 297 298 299 300 302 301 301 300 300 298 294 293 292 292 292 291 291 288 288 287 288 288 287 287 287 287 287
282 280 278 283 287 289 290 282 288 286 288 289 292 287 293 295 296 297 298 299 299 300 300 300 299 298 293 291 291 291 291 291 290 290 289 288 288 287 287 287 286 286 285 286
283 282 284 288 288 290 281 283 287 286 287 288 289 293 293 293 294 295 294 294 295 296 297 297 296 293 292 291 290 291 289 288 288 288 288 288 287 286 286 286 285 285 284 284
283 281 279 289 288 285 288 288 287 286 288 287 289 291 291 292 291 291 291 290 290 292 293 292 291 292 291 291 290 288 288 287 286 286 286 286 286 285 285 285 284 284 284 284
285 286 289 290 290 293 291 290 289 287 289 289 288 290 290 290 290 288 288 287 286 288 286 285 285 288 289 287 287 286 286 286 286 285 286 285 285 285 285 285 285 285 285 285
286 288 289 290 292 291 291 290 291 290 289 288 289 290 289 289 287 286 284 283 283 284 284 283 284 285 287 286 286 286 286 285 285 285 285 285 286 286 286 285 285 285 285 285
285 288 289 290 291 294 292 291 290 290 287 287 289 290 288 286 284 283 282 282 282 283 282 281 282 282 284 284 286 286 285 284 285 285 285 285 285 285 285 286 287 286 285 286
284 290 291 292 293 292 292 291 291 289 288 286 285 287 285 283 281 281 281 281 280 279 279 278 278 278 279 283 285 286 285 284 285 285 285 285 285 284 282 284 283 284 285 285
289 291 291 291 289 290 290 291 289 286 286 286 284 283 283 282 280 279 280 280 278 277 277 277 276 275 275 280 284 285 285 283 282 283 283 283 282 284 284 281 282 283 284 285
291 290 287 287 290 289 287 285 281 280 280 281 281 281 281 280 279 279 276 275 276 276 275 274 273 270 271 276 279 279 280 281 283 283 283 282 282 282 282 282 282 281 281 280
288 289 289 288 285 285 280 279 279 280 281 281 280 281 280 279 278 274 273 274 274 274 273 273 271 269 270 274 278 279 280 279 279 278 277 278 279 279 279 279 279 279 279 280
287 286 286 284 286 287 280 276 278 282 280 281 280 277 278 278 275 273 273 274 278 274 272 272 269 267 269 273 276 275 273 273 276 277 277 277 277 278 277 277 277 277 277 277
280 281 278 281 283 285 280 281 283 282 279 278 278 277 275 274 273 273 271 271 271 269 269 268 267 267 268 270 274 275 275 272 272 276 275 275 275 275 275 275 275 275 276 276
279 283 284 285 285 284 282 281 281 280 278 278 276 275 274 275 275 271 270 270 270 268 267 267 268 268 268 268 271 273 274 274 274 273 274 274 273 274 275 276 275 275 276 277
270 272 276 281 283 282 281 282 280 278 274 274 274 274 275 275 273 271 271 272 272 272 267 266 269 268 268 270 270 273 273 273 273 271 271 269 272 272 273 274 273 272 272 272
268 271 272 277 273 276 275 272 274 273 273 273 272 272 270 270 270 271 274 270 268 267 266 266 266 267 267 266 266 271 271 272 271 271 270 271 271 271 270 267 268 269 270 270
267 268 268 269 270 271 271 272 272 271 272 273 272 270 269 268 269 270 269 270 265 265 265 264 266 267 267 266 268 269 270 270 269 269 269 268 269 268 268 268 268 268 267 267
267 267 267 269 270 270 271 272 272 273 273 271 269 269 267 266 265 264 263 269 265 264 265 266 266 264 265 265 267 268 268 267 267 267 267 266 266 266 266 266 265 265 265 266
266 267 267 268 269 269 269 270 272 273 272 271 269 269 270 270 270 269 269 264 264 263 265 265 264 264 264 266 266 266 266 265 265 265 265 265 264 264 264 264 263 264 263 263
265 265 266 268 270 270 267 265 265 265 265 265 264 265 267 266 264 264 264 263 264 264 264 264 265 264 264 264 265 264 265 264 264 264 263 261 263 263 263 262 262 262 261 261
265 266 266 268 268 265 265 264 264 263 262 262 262 262 263 264 267 263 264 263 264 263 263 264 264 263 263 264 264 263 263 262 262 262 262 262 261 261 261 261 260 260 259 260
269 267 266 265 267 267 266 267 265 265 264 263 262 263 263 263 262 263 262 262 262 262 262 262 262 263 263 262 262 262 262 262 262 261 261 260 260 260 259 259 260 261 261 261
262 262 264 263 264 265 266 266 266 264 265 265 261 262 262 262 262 262 262 262 262 261 262 262 262 261 262 262 261 261 261 260 259 260 260 259 259 259 259 260 260 260 260 260
Wind_Speed
3 3 1 3 13 18 21 18 10 7 11 8 5 6 4 3 3 5 5 6 6 9 9 11 11 11 11 12 11 10 10 10 10 8 9 9 10 9 8 8 8 8 8 7
2 5 2 5 8 18 20 18 19 12 11 6 4 1 3 3 5 5 7 9 10 9 9 10 12 12 11 11 10 10 10 9 9 9 8 8 9 8 8 8 7 6 7 7
3 3 1 6 11 14 13 16 14 19 17 6 5 8 6 4 7 7 8 10 10 10 10 11 12 11 11 10 9 9 8 7 8 9 9 9 9 9 9 9 8 7 7 7
2 2 4 2 4 2 14 9 13 16 12 13 14 14 9 2 3 3 3 1 5 7 10 10 9 10 9 9 10 9 8 8 8 10 9 8 9 9 8 7 8 7 6 6
1 3 6 3 3 2 3 3 5 11 13 13 11 7 15 9 5 6 4 4 5 6 7 9 10 10 9 8 8 9 10 10 10 10 10 10 11 10 8 8 7 7 5 7
2 2 3 3 2 3 2 3 3 3 3 5 5 8 8 6 8 9 8 4 4 4 4 7 9 11 11 10 10 12 11 11 10 10 10 10 10 9 4 4 4 4 4 3
3 3 5 3 1 1 2 2 2 2 4 5 3 5 8 9 10 3 3 6 6 5 7 7 8 10 11 11 14 9 7 7 8 9 9 8 6 4 4 3 4 4 3 3
2 4 4 2 3 2 3 2 1 3 3 5 7 10 9 7 7 5 5 5 5 4 3 4 6 9 9 12 6 8 8 7 6 5 4 5 7 4 5 5 4 3 3 4
4 1 1 2 3 1 4 4 3 3 4 5 7 6 8 7 6 4 5 5 3 3 3 3 2 4 7 5 8 8 8 7 6 6 5 5 6 6 5 4 4 5 5 5
3 2 3 4 3 4 3 4 4 4 5 5 5 5 6 5 5 4 3 4 3 1 3 3 2 3 4 6 7 8 8 7 6 7 6 5 5 6 6 6 5 4 4 5
7 6 6 8 8 8 6 7 6 5 4 6 6 4 2 4 4 4 3 3 3 3 4 4 4 5 5 5 7 8 8 6 6 5 5 5 2 3 3 2 3 3 3 3
6 4 2 2 3 4 7 11 7 4 4 2 1 9 2 3 2 4 3 3 5 6 6 5 5 5 5 4 5 8 8 6 5 5 5 5 5 3 2 2 2 2 4 2
12 3 5 4 3 2 3 4 1 2 2 5 1 1 4 2 3 4 5 5 7 7 6 5 6 7 6 7 4 7 7 6 4 5 4 5 2 3 3 3 4 0 2 3
8 4 6 4 8 4 6 2 2 0 2 3 2 0 2 3 2 6 8 5 6 7 6 5 5 6 7 6 7 8 7 8 5 5 5 4 3 3 2 3 1 2 5 4
11 8 13 3 2 5 3 1 2 4 2 1 2 1 3 3 2 7 5 6 6 7 6 5 6 7 7 6 6 7 5 5 4 5 5 4 3 3 3 3 2 2 1 2
5 8 10 9 16 11 5 2 4 4 4 3 2 1 3 7 4 7 7 5 3 5 5 6 6 6 7 6 6 6 6 7 6 4 4 4 4 3 2 2 1 2 1 2
5 11 2 7 10 13 8 4 7 1 3 4 4 5 6 7 7 8 9 7 7 7 7 7 5 5 6 7 5 4 4 5 5 5 4 4 3 4 2 1 2 2 1 1
10 11 6 6 5 7 5 8 8 6 4 5 6 7 7 6 7 8 9 9 7 7 7 6 5 6 6 7 6 5 4 3 3 4 2 3 4 4 2 2 1 0 1 2
6 9 9 7 6 6 4 5 7 5 6 7 8 6 6 6 7 7 7 10 8 6 3 4 8 7 7 9 6 4 2 3 3 2 3 3 4 4 3 2 3 2 1 1
9 6 7 7 2 4 5 3 5 6 5 6 8 8 8 6 7 7 5 5 5 5 5 4 4 6 5 4 5 3 2 1 3 2 4 3 4 3 2 4 1 2 3 4
8 7 6 2 3 5 2 8 7 6 6 6 7 7 7 6 5 5 6 4 3 3 5 4 3 2 2 3 2 2 1 2 1 4 4 2 3 2 2 2 2 3 4 4
5 4 3 5 6 8 6 6 8 7 7 8 9 9 9 7 6 6 6 2 4 3 3 2 3 4 3 2 1 2 2 3 3 3 3 2 3 2 2 4 3 4 4 4
3 2 3 6 7 8 8 8 8 8 8 7 8 6 5 5 4 4 4 3 3 4 3 4 4 4 4 1 2 2 2 4 3 3 3 2 3 3 4 4 4 4 3 3
3 4 5 6 8 8 9 6 9 9 9 9 9 6 5 5 5 5 6 6 7 6 4 4 4 4 4 3 2 2 2 4 4 4 3 4 4 3 3 3 3 2 2 2
4 3 3 5 7 6 8 8 9 8 8 8 6 5 5 4 2 4 4 5 7 5 5 5 5 4 3 3 3 3 3 4 5 4 4 3 3 2 3 3 2 2 2 2
4 3 3 5 5 5 5 4 5 5 5 6 4 4 4 5 5 5 5 6 5 5 4 3 2 3 3 3 4 4 5 5 4 4 3 3 3 2 2 2 2 2 2 3
4 4 4 4 4 3 3 4 4 5 4 4 5 3 4 4 5 5 5 4 4 4 4 3 3 3 3 4 5 5 5 4 5 3 3 2 2 2 3 2 3 3 3 3
Wind_Direction
45 354 163 206 190 201 216 226 228 232 230 272 62 59 42 77 138 160 172 176 165 171 177 178 177 176 186 183 174 170 171 172 170 159 165 157 157 161 163 169 170 169 171 179
118 46 328 278 233 207 225 230 242 265 289 15 321 47 287 162 153 201 192 195 203 193 178 186 183 185 186 184 175 170 174 174 161 159 155 153 154 161 154 168 170 168 176 176
123 353 321 254 230 214 225 229 232 235 238 303 315 291 228 222 173 195 200 199 198 193 187 187 191 185 181 181 163 169 174 166 148 155 156 162 161 163 169 179 170 176 187 187
80 219 229 37 12 282 222 228 228 246 251 252 255 283 327 108 297 330 295 236 197 193 192 187 182 178 172 171 161 171 171 161 162 162 160 159 164 174 175 175 182 184 183 189
229 231 323 136 47 41 165 260 298 264 260 264 278 307 280 284 270 261 277 237 230 213 196 173 175 170 162 157 159 170 177 178 171 165 161 168 181 180 178 179 180 187 174 194
157 263 275 62 75 338 294 242 11 353 339 318 277 243 272 31 0 324 305 279 215 194 152 168 173 161 154 167 173 189 180 185 172 167 171 179 183 184 170 175 171 166 169 151
187 235 279 68 2 227 148 37 350 349 342 328 268 288 335 316 300 271 302 312 317 201 192 194 159 157 177 175 200 173 155 143 162 171 175 177 161 148 148 125 108 121 157 171
164 228 256 146 113 221 57 51 335 286 279 287 287 295 293 293 289 310 310 321 332 301 207 136 147 165 174 193 150 137 138 147 161 156 145 142 144 126 125 127 138 167 189 218
241 347 356 347 326 169 161 170 202 216 239 241 274 275 299 298 313 318 322 315 327 281 134 44 84 154 172 157 137 139 139 148 140 135 138 144 143 140 126 148 187 201 205 226
317 228 263 239 251 250 209 251 275 238 263 228 244 279 294 301 313 322 337 324 334 31 119 114 49 80 120 148 132 134 138 139 137 138 144 149 153 159 172 181 198 210 206 225
247 271 269 251 233 239 225 231 252 267 255 285 295 282 284 321 323 333 353 359 6 54 70 58 47 74 70 100 128 125 123 127 133 138 150 144 113 148 165 157 160 187 202 184
248 175 221 283 10 333 244 247 226 225 277 264 306 311 305 95 16 341 18 34 60 60 74 59 48 43 31 58 110 130 123 123 138 134 142 138 152 144 133 183 131 255 262 238
253 220 225 267 300 204 247 271 239 241 262 296 31 283 316 312 98 68 41 44 66 60 53 53 51 54 16 354 84 103 116 129 113 125 133 131 125 131 141 120 90 354 290 272
230 186 264 180 255 228 211 146 114 350 296 287 300 125 117 313 107 86 72 35 46 63 54 72 69 46 3 6 71 63 74 72 89 69 49 37 43 70 65 79 98 106 76 40
253 221 250 292 314 247 121 81 271 259 211 273 284 281 140 138 120 94 76 67 53 51 29 35 58 34 357 347 67 85 87 73 80 95 83 87 91 79 76 83 92 94 92 109
250 239 240 240 257 262 186 183 238 235 186 168 203 80 105 102 96 100 81 38 57 67 21 28 37 14 358 357 52 75 79 80 76 81 90 97 78 60 71 74 84 75 26 55
258 264 240 245 239 248 214 198 243 227 163 164 152 128 114 114 108 88 80 52 59 67 47 41 33 3 2 15 25 58 65 59 68 78 82 77 88 71 44 44 49 51 45 55
294 285 268 228 233 232 202 205 201 196 197 152 133 130 133 158 137 126 122 112 91 67 44 24 28 16 34 23 23 42 50 57 54 73 82 88 88 91 69 25 43 71 32 10
279 282 285 260 231 210 212 196 187 153 142 142 139 135 124 108 122 129 147 133 132 133 84 42 18 20 30 25 9 24 58 105 97 84 94 132 95 70 69 31 354 351 360 339
301 282 278 274 242 175 167 92 117 122 127 124 119 119 113 111 125 137 138 78 52 97 99 63 60 35 13 16 354 26 21 61 93 106 60 72 67 80 96 97 335 320 16 24
303 313 304 355 35 17 26 115 120 126 114 110 115 112 109 99 90 107 123 134 127 91 84 74 53 90 50 346 337 47 32 81 75 72 65 78 115 95 85 81 39 23 30 17
326 330 10 76 80 69 31 67 94 101 98 93 98 111 113 103 89 73 42 31 114 99 99 94 79 62 54 324 40 75 102 81 74 91 99 75 73 83 69 60 36 37 23 13
356 7 62 74 88 90 64 58 67 79 90 98 111 116 109 111 119 136 127 94 104 95 83 74 70 77 83 52 62 85 109 91 87 83 81 82 77 60 50 46 29 34 16 353
39 54 87 102 113 102 90 64 73 72 75 65 59 52 100 106 67 48 73 104 103 88 75 70 62 70 71 76 83 104 87 89 96 79 85 61 58 52 41 47 30 17 358 345
62 53 64 89 97 99 109 111 102 92 87 82 69 54 45 30 38 126 108 106 110 101 89 78 82 82 83 102 105 92 77 62 53 60 53 58 54 46 43 41 12 4 331 309
102 70 59 42 99 117 121 124 110 117 118 109 83 70 71 71 87 100 97 103 103 109 105 105 90 97 101 84 80 72 69 67 61 56 47 50 45 44 37 12 348 338 313 294
95 108 102 84 67 80 81 102 116 109 104 112 103 85 90 95 94 100 110 110 102 98 97 91 86 68 77 83 75 70 68 69 41 41 29 27 20 35 19 343 323 305 290 278